Weather Roundup
Issued by NWS Corpus Christi, TX

Home | Current Version | Previous Version | Text Only | Print | Product List | Glossary On
Versions: 1 2 3 4 5 6 7 8 9 10 11 12 13 14 15 16 17 18 19 20 21 22 23 24 25 26 27 28 29 30 31 32 33 34 35 36 37 38 39 40 41 42 43 44 45 46 47 48 49 50
000
ASUS44 KCRP 222310
HRRCRP

SOUTH TEXAS REGIONAL WEATHER ROUNDUP
NATIONAL WEATHER SERVICE CORPUS CHRISTI TX
500 PM CST MON DEC 22 2014


TXZ229>244-230000-
...CORPUS CHRISTI AREA OBSERVATIONS...

CITY           SKY/WX    TMP DP  RH WIND       PRES   REMARKS
CORPUS CHRISTI PTCLDY    76  60  57 S5        29.62F
NAS CORPUS CHR PTCLDY    67  64  90 S12       29.64S
ROCKPORT       CLEAR     66  61  84 S7        29.64S
KINGSVILLE NAS PTCLDY    74  60  61 W3        29.63F
ALICE          CLEAR     76  55  48 S3        29.61F HAZE
FALFURRIAS     CLEAR     76  58  53 SE5       29.61F
$$

...VICTORIA AREA OBSERVATIONS...

CITY           SKY/WX    TMP DP  RH WIND       PRES   REMARKS
VICTORIA       PTCLDY    72  59  63 S8        29.63F
BEEVILLE       FAIR      71  61  69 S6        29.63F
PLEASANTON     MOCLDY    71  53  52 CALM      29.63F
SAN ANTONIO    CLOUDY    69  52  54 W3        29.63S
$$

...LAREDO AREA OBSERVATIONS...

CITY           SKY/WX    TMP DP  RH WIND       PRES   REMARKS
LAREDO         CLEAR     77  54  44 SE5       29.65F
COTULLA        PTCLDY    76  50  40 CALM      29.62F
DEL RIO        MOCLDY    61  53  75 CALM      29.62F
MCALLEN        CLEAR     76  63  64 CALM      29.64S
HEBBRONVILLE   CLEAR     78  49  35 SW5       29.63S
$$

...OTHER TEXAS OBSERVATIONS...

CITY           SKY/WX    TMP DP  RH WIND       PRES   REMARKS
BROWNSVILLE    CLEAR     73  64  73 S15       29.65F
HOUSTON        CLOUDY    69  61  75 SW6       29.62S
COL. STATION   CLOUDY    66  55  67 SW7       29.60S
AUSTIN         CLOUDY    67  56  67 S7        29.61R
WACO           CLOUDY    63  41  44 N14       29.61R
FORT WORTH     CLOUDY    59  45  59 NW16      29.63R
WICHITA FALLS  CLOUDY    56  39  53 NW6       29.64R
LUBBOCK        MOCLDY    51  28  41 NE13      29.68S
EL PASO        MOSUNNY   66  32  28 SW15G28   29.70F
$$

...MARINE OBSERVATIONS...

STATION/POSITION TIME  SKY/WX   TEMP    WIND        PRES    VSBY  WAVE   SWELL
                                AIR SEA DIR/SP/G                  HT/PER HT/PER
                 (UTC)          (F)     (DEG/KT/KT) (MB)    (MI)  (FT/S) (FT/S)
PORT ARANSAS     2300            64 63  130/ 10/ 11 1004.3F
BUOY 90 E PORT A 2300            72 72  220/ 16/ 17 1004.5F         3/ 5
BUOY 45 SE BAFFI 2300            71 73  190/ 19/ 25 1003.1F         3/ 4   2/ 7
BUOY 200 E PT IS 2300            74 74  190/ 14/ 16 1005.8F         4/ 5   2/ 7
BUOY 15 E GALVES 2300            65 64  220/ 14/ 17 1003.7R         3/ 4
$$



USA.gov is the U.S. government's official web portal to all federal, state and local government web resources and services.